Flag Weather past 2 weeks in Barranquilla, Colombia

Now
81 °F

Passing clouds.


Feels Like: 87 °F
Forecast: 81 / 88 °F
Wind: 6 mph from Northeast

Location: Barranquilla / Ernestocortissoz

Current Time: Nov 27, 2014 at 10:42:50 PM

Latest Report: Nov 27, 2014 at 10:00 PM


Visibility: N/A

Pressure: 29.82 "Hg

Humidity: 89%

Dew point: 77 °F

Location of BarranquillaLocation

Historic Weather in Barranquilla — Graph

°F

Barranquilla temperature yesterday

Maximum temperature yesterday: 91 °F (at 12:00 PM)
Minimum temperature yesterday: 75 °F (at 4:00 AM)
Average temperature yesterday: 82 °F

Past Weeks' High & Low Weather Summary

 TemperatureHumidityPressure
High93 °F (Nov 16, 12:00 PM)100% (Nov 12, 9:00 PM)29.95 "Hg (Nov 12, 9:00 PM)
Low73 °F (Nov 14, 3:00 AM)24% (Nov 27, 1:00 AM)29.73 "Hg (Nov 23, 4:00 PM)
Average82 °F87%29.84 "Hg
* Reported Nov 12 9:00 PM — Nov 27 9:00 PM, Barranquilla, Weather by CustomWeather, © 2014

Note: Actual official high and low records may vary slightly from our data, if they occured in-between our weather recording intervals... More about our weather records

Advertising

Barranquilla weather history for previous 24 hours

 ConditionsComfort  
Time TempWeatherWind HumidityBarometerVisibility
9:00 PM
Nov 27
81 °FPassing clouds.9 mph89%29.82 "HgN/A
8:00 PM81 °FPassing clouds.9 mph89%29.81 "HgN/A
7:00 PM81 °FPassing clouds.6 mph89%29.81 "HgN/A
6:00 PM81 °FPassing clouds.7 mph89%29.79 "HgN/A
5:00 PM82 °FScattered clouds.13 mph84%29.79 "HgN/A
4:00 PM86 °FScattered clouds.12 mph75%29.78 "HgN/A
3:00 PM86 °FScattered clouds.7 mph79%29.78 "HgN/A
2:00 PM88 °FScattered clouds.9 mph75%29.82 "HgN/A
1:00 PM88 °FScattered clouds.5 mph75%29.82 "HgN/A
12:00 PM90 °FScattered clouds.6 mph71%29.86 "HgN/A
11:00 AM88 °FPartly sunny.3 mph75%29.90 "HgN/A
10:00 AM86 °FScattered clouds.8 mph79%29.91 "HgN/A
9:00 AM82 °FFog.7 mph89%29.93 "Hg3 mi
8:00 AM79 °FFog.5 mph89%29.91 "Hg2 mi
7:00 AM77 °FFog.No wind100%29.88 "Hg1 mi
6:00 AM77 °FFog.5 mph100%29.86 "Hg0 mi
5:00 AM77 °FLow clouds.5 mph100%29.83 "Hg2 mi
4:00 AM77 °FPassing clouds.6 mph94%29.82 "Hg2 mi
3:00 AM77 °FFog.5 mph94%29.81 "Hg4 mi
2:00 AM79 °FPassing clouds.5 mph94%29.82 "HgN/A
1:00 AM81 °FPassing clouds.6 mph24%29.85 "HgN/A
12:00 AM81 °FPassing clouds.6 mph94%29.86 "HgN/A
11:00 PM
Nov 26
81 °FPassing clouds.7 mph89%29.87 "HgN/A
10:00 PM81 °FPassing clouds.9 mph94%29.87 "HgN/A
Weather by CustomWeather, © 2014

See weather overviewHow to use our weather pages